NOAA 16 DEB, 41200

Orbit data source: Space-Track

NOAA 16 DEB, 41200 is space debris in SSO originally from a launch on Thu, 21 Sep 2000 UTC launched from the Air Force Western Test Range (AFWTR). Debris objects in space refer to the collection of defunct objects orbiting the Earth. Examples of debris include non-operational satellites, rocket bodies, and fragments generated from explosions, collisions, or faulty payload assembly.

Loading next visibility...
NOAA 16 DEB details
Identifier
41200, 2000-055DD
Orbit
SSO
Last TLE update2 days ago
Origin
Flag of USNOAA (US)
ManufacturerUnknown
MissionSpacecraft
Bus & MotorUnknown
MassUnknown
Launch date (UTC)
2000-09-21 (24 years ago)
Launch vehicleUnknown
Launch site
Air Force Western Test Range (AFWTR)
Object type
Payload
Rocket body
Debris
Shape & HBRUnknown
Radar Cross SectionSmall (<0.1 m²)

Expand to show TLE details & history

TLE from 2 days ago
0 NOAA 16 DEB
1 41200U 00055DD  24338.36209452  .00095705  00000-0  16227-1 0  9993
2 41200  98.8465 123.0814 0019812 282.2520  77.6464 14.68546501467832
Epoch: 2024-12-03T08:41Z
Definitive object data (Epoch: 2024-12-03T08:41:24.966Z)
Latitude-0.00004°
Longitude-79.94531°
Altitude665.728 km
Speed7.526 km/s
True Right ascension08h 12m 19s
True Declination0° 00' 00"
Sunlit
Object was in full shadow at TLE epoch
Visualization TLE readout
Latitude-55.12394°
Longitude-65.20945°
Altitude673.626 km
Speed7.525 km/s
Apparent Right ascension11h 14m 15s
Apparent Declination-51° 10' 09"
Sunlit
Object is in daylight
Visualization observer readout
Local Sidereal Time00:54:00
Azimuth131.347° SE
Elevation-69.379°
Doppler factor1
Orbital elements
Apogee altitude676.762 km
Perigee altitude648.863 km
Semi-major axis7,040.95 km
Eccentricity0.0019812
Inclination98.8465°
RAAN123.0814°
Arg. of periapsis282.252°
True anomaly77.86829°
Mean anomaly77.6464°
Eccentric anomaly77.75733°
Mean motion3.67364 °/min
BSTAR0.016227
Orbital period98 mins
Loading maneuver chart data...
Loading historical data...
Loading historical data...
Loading historical data...
Loading historical data...
Loading historical data...
Loading historical data...
Loading historical data...

NOAA 16 DEB Visibility forecast

Observer location: undefined°, undefined

Span
Click to sort rows by Start time (UTC) header in descending order
Start Az.
Max El. time (UTC)
Max El. Az.
Max El.
End time (UTC)
End Az.
8 mins2024-12-05 09:51:51.226Z167.305° S2024-12-05 09:55:51.226Z330.411° NNW43.713°2024-12-05 09:59:51.226Z345.175° N
5 mins2024-12-05 21:47:51.226Z65.111° ENE2024-12-05 21:49:51.226Z97.907° ESE18.338°2024-12-05 21:52:51.226Z139.846° SSE
7 mins2024-12-05 23:23:51.226Z348.87° N2024-12-05 23:26:51.226Z283.79° WNW32.309°2024-12-05 23:30:51.226Z221.936° SW
|